EW3714 Weather Reports


Display with metric or nautical units.
time (UTC)temp
F
wind
direction
speed
MPH
gust
MPH
rain 1hr
in
rain 24hr
in
rain mn
in
humidity
%
barometer
mb
20260906144747 84 42 0.0 2.0 0.00 0.00 0.00 78 1015.5
20260906144242 84 287 0.0 2.0 0.00 0.00 0.00 78 1015.6
20260906143741 83 44 0.0 2.0 0.00 0.00 0.00 79 1015.5
20260906143238 83 25 0.0 1.0 0.00 0.00 0.00 80 1015.3
20260906142738 83 50 0.0 1.0 0.00 0.00 0.00 80 1015.6
20260906142233 82 166 0.0 0.0 0.00 0.00 0.00 80 1015.7
20260906141732 82 322 0.0 0.0 0.00 0.00 0.00 80 1015.5
20260906141227 82 343 0.0 1.0 0.00 0.00 0.00 80 1015.4
20260906140727 82 343 0.0 2.0 0.00 0.00 0.00 80 1015.4
20260906140221 82 25 0.0 1.0 0.00 0.00 0.00 80 1015.4
20260906135718 82 49 0.0 2.0 0.00 0.00 0.00 80 1015.4
20260906135214 82 322 0.0 1.0 0.00 0.00 0.00 81 1015.2
20260906134709 82 359 1.0 1.0 0.00 0.00 0.00 81 1015.2
20260906134205 82 45 0.0 2.0 0.00 0.00 0.00 81 1015.3
20260906133700 81 30 0.0 0.0 0.00 0.00 0.00 81 1015.3
20260906133155 81 205 0.0 1.0 0.00 0.00 0.00 81 1015.4
20260906132651 81 255 0.0 1.0 0.00 0.00 0.00 81 1015.0
20260906132146 81 37 0.0 1.0 0.00 0.00 0.00 83 1015.0
20260906131641 81 49 0.0 0.0 0.00 0.00 0.00 82 1014.8
20260906131137 80 135 0.0 2.0 0.00 0.00 0.00 82 1014.6
20260906130632 80 52 0.0 1.0 0.00 0.00 0.00 83 1014.6
20260906130127 80 66 0.0 1.0 0.00 0.00 0.00 83 1014.5
20260906125625 80 75 0.0 1.0 0.00 0.00 0.00 84 1014.6
20260906125123 79 58 0.0 1.0 0.00 0.00 0.00 84 1014.5
20260906124619 79 69 0.0 1.0 0.00 0.00 0.00 84 1014.5
20260906124114 79 37 0.0 1.0 0.00 0.00 0.00 84 1014.5
20260906123614 79 333 0.0 0.0 0.00 0.00 0.00 84 1014.4
20260906123109 79 76 0.0 1.0 0.00 0.00 0.00 84 1014.2
20260906122608 79 25 0.0 0.0 0.00 0.00 0.00 84 1014.0
20260906122104 79 17 0.0 1.0 0.00 0.00 0.00 84 1014.1
20260906121600 79 257 0.0 0.0 0.00 0.00 0.00 83 1014.0
20260906121056 79 327 1.0 2.0 0.00 0.00 0.00 83 1013.9
20260906120551 79 358 0.0 1.0 0.00 0.00 0.00 82 1013.8
20260906120049 79 291 0.0 0.0 0.00 0.00 0.00 83 1013.8
20260906115549 80 32 0.0 0.0 0.00 0.00 0.00 83 1013.7
20260906115044 80 297 0.0 1.0 0.00 0.00 0.00 82 1013.5
20260906114543 80 344 1.0 1.0 0.00 0.00 0.00 82 1013.6
20260906114039 80 351 1.0 1.0 0.00 0.00 0.00 81 1013.4
20260906113538 80 17 0.0 0.0 0.00 0.00 0.00 81 1013.4
20260906113033 80 50 0.0 0.0 0.00 0.00 0.00 81 1013.3
20260906112528 80 329 0.0 0.0 0.00 0.00 0.00 81 1013.1
20260906112025 80 37 0.0 0.0 0.00 0.00 0.00 81 1012.9
20260906111524 80 25 0.0 0.0 0.00 0.00 0.00 80 1013.1
20260906111019 80 230 0.0 1.0 0.00 0.00 0.00 80 1012.9
20260906110514 80 205 0.0 0.0 0.00 0.00 0.00 80 1012.9
20260906110013 80 32 0.0 0.0 0.00 0.00 0.00 80 1012.8
20260906105509 80 32 0.0 0.0 0.00 0.00 0.00 80 1012.9
20260906105005 81 44 0.0 0.0 0.00 0.00 0.00 80 1013.0
20260906104503 81 44 0.0 0.0 0.00 0.00 0.00 79 1013.2
20260906104003 81 44 0.0 0.0 0.00 0.00 0.00 79 1013.3
20260906103501 81 44 0.0 1.0 0.00 0.00 0.00 80 1013.1
20260906102956 81 343 0.0 0.0 0.00 0.00 0.00 79 1013.0
20260906102451 81 50 0.0 0.0 0.00 0.00 0.00 79 1012.8
20260906101950 81 92 0.0 1.0 0.00 0.00 0.00 79 1012.8
20260906101446 81 66 0.0 0.0 0.00 0.00 0.00 79 1012.7
20260906100946 81 157 0.0 0.0 0.00 0.00 0.00 79 1012.9
20260906100441 81 135 0.0 0.0 0.00 0.00 0.00 79 1012.8
20260906095935 81 32 0.0 2.0 0.00 0.00 0.00 79 1013.0
20260906095431 81 117 0.0 1.0 0.00 0.00 0.00 78 1012.9
20260906094926 81 117 0.0 1.0 0.00 0.00 0.00 78 1013.0
20260906094420 81 135 0.0 1.0 0.00 0.00 0.00 78 1013.0
20260906093916 81 49 0.0 2.0 0.00 0.00 0.00 79 1013.1
20260906093413 81 202 0.0 2.0 0.00 0.00 0.00 78 1013.1
20260906092912 81 102 0.0 0.0 0.00 0.00 0.00 78 1012.9
20260906092412 81 19 0.0 0.0 0.00 0.00 0.00 77 1012.9
20260906091908 81 129 0.0 0.0 0.00 0.00 0.00 77 1012.8
20260906091403 81 66 0.0 0.0 0.00 0.00 0.00 77 1012.8
20260906090900 81 42 1.0 1.0 0.00 0.00 0.00 78 1012.9
20260906090359 81 104 0.0 0.0 0.00 0.00 0.00 77 1012.7
20260906085854 82 104 0.0 0.0 0.00 0.00 0.00 77 1013.1
20260906085353 82 135 0.0 1.0 0.00 0.00 0.00 77 1012.9
20260906084848 82 60 0.0 1.0 0.00 0.00 0.00 77 1012.9
20260906084348 82 126 0.0 0.0 0.00 0.00 0.00 77 1013.0
20260906083842 82 62 0.0 2.0 0.00 0.00 0.00 77 1012.9
20260906083338 82 20 0.0 1.0 0.00 0.00 0.00 77 1012.8
20260906082838 82 75 0.0 1.0 0.00 0.00 0.00 76 1013.0
20260906082333 82 212 0.0 0.0 0.00 0.00 0.00 76 1013.0
20260906081829 82 89 0.0 1.0 0.00 0.00 0.00 76 1013.0
20260906081325 82 37 0.0 2.0 0.00 0.00 0.00 75 1012.9
20260906080820 82 343 0.0 2.0 0.00 0.00 0.00 76 1013.0
20260906080317 83 89 0.0 1.0 0.00 0.00 0.00 75 1013.0
20260906075816 83 75 0.0 0.0 0.00 0.00 0.00 75 1013.1
20260906075315 83 67 1.0 1.0 0.00 0.00 0.00 75 1013.1
20260906074811 83 66 0.0 2.0 0.00 0.00 0.00 76 1013.3
20260906074310 83 46 1.0 2.0 0.00 0.00 0.00 75 1013.4
20260906073809 83 72 0.0 3.0 0.00 0.00 0.00 74 1013.4
20260906073304 83 69 2.0 2.0 0.00 0.00 0.00 75 1013.4
20260906072801 83 141 0.0 0.0 0.00 0.00 0.00 74 1013.5
20260906072256 83 50 0.0 1.0 0.00 0.00 0.00 74 1013.5
20260906071752 84 53 1.0 1.0 0.00 0.00 0.00 74 1013.6
20260906071252 84 322 0.0 2.0 0.00 0.00 0.00 73 1013.7
20260906070749 84 8 1.0 1.0 0.00 0.00 0.00 73 1013.7
20260906070244 84 35 0.0 1.0 0.00 0.00 0.00 73 1013.6
20260906065743 84 79 1.0 2.0 0.00 0.00 0.00 73 1013.8
20260906065239 84 130 0.0 2.0 0.00 0.00 0.00 72 1013.6
20260906064735 84 183 0.0 2.0 0.00 0.00 0.00 72 1013.7
20260906064230 84 15 0.0 2.0 0.00 0.00 0.00 73 1013.8
20260906063725 84 339 0.0 1.0 0.00 0.00 0.00 71 1013.8
20260906063221 84 149 1.0 2.0 0.00 0.00 0.00 71 1013.8
20260906062716 84 0 0.0 1.0 0.00 0.00 0.00 71 1014.1
20260906062215 85 304 0.0 1.0 0.00 0.00 0.00 71 1013.9
20260906061711 85 11 2.0 2.0 0.00 0.00 0.00 71 1014.1
20260906061207 85 76 0.0 2.0 0.00 0.00 0.00 71 1014.2
20260906060702 85 63 0.0 2.0 0.00 0.00 0.00 70 1014.2
20260906060159 85 25 0.0 1.0 0.00 0.00 0.00 70 1014.1
20260906055655 85 180 0.0 1.0 0.00 0.00 0.00 70 1014.1
20260906055150 85 1 1.0 1.0 0.00 0.00 0.00 70 1014.0
20260906054645 85 195 0.0 3.0 0.00 0.00 0.00 70 1014.0
20260906054140 86 33 0.0 1.0 0.00 0.00 0.00 70 1014.1
20260906053637 86 217 0.0 0.0 0.00 0.00 0.00 69 1013.9
20260906053137 86 214 0.0 0.0 0.00 0.00 0.00 69 1014.0
20260906052633 86 25 0.0 1.0 0.00 0.00 0.00 69 1013.8
20260906052129 86 37 0.0 0.0 0.00 0.00 0.00 69 1013.9
20260906051626 86 37 0.0 0.0 0.00 0.00 0.00 69 1013.9
20260906051125 86 11 0.0 1.0 0.00 0.00 0.00 69 1014.0
20260906050621 86 31 1.0 2.0 0.00 0.00 0.00 69 1014.1
20260906050116 86 331 0.0 2.0 0.00 0.00 0.00 68 1014.1
20260906045614 86 4 0.0 2.0 0.00 0.00 0.00 68 1014.2
20260906045110 86 293 0.0 0.0 0.00 0.00 0.00 68 1014.3
20260906044606 86 186 0.0 2.0 0.00 0.00 0.00 67 1014.2
20260906044100 86 344 0.0 3.0 0.00 0.00 0.00 68 1014.1
20260906043557 86 336 0.0 2.0 0.00 0.00 0.00 67 1014.2
20260906043052 86 295 0.0 1.0 0.00 0.00 0.00 67 1014.1
20260906042551 86 321 0.0 3.0 0.00 0.00 0.00 67 1014.0
20260906042046 87 336 0.0 2.0 0.00 0.00 0.00 66 1014.1
20260906041542 87 76 0.0 1.0 0.00 0.00 0.00 67 1013.8
20260906041037 87 15 0.0 0.0 0.00 0.00 0.00 66 1014.0
20260906040532 87 322 0.0 1.0 0.00 0.00 0.00 66 1014.0
20260906040028 87 269 0.0 1.0 0.00 0.00 0.00 65 1014.0
20260906035522 87 213 0.0 2.0 0.00 0.00 0.00 65 1014.1
20260906035019 87 203 0.0 2.0 0.00 0.00 0.00 64 1013.9
20260906034518 87 320 0.0 1.0 0.00 0.00 0.00 64 1013.9
20260906034013 87 65 1.0 2.0 0.00 0.00 0.00 63 1014.1
20260906033508 87 0 0.0 1.0 0.00 0.00 0.00 62 1014.0
20260906033004 87 347 0.0 1.0 0.00 0.00 0.00 61 1014.2
20260906032500 88 315 0.0 0.0 0.00 0.00 0.00 62 1013.9
20260906031959 88 212 0.0 0.0 0.00 0.00 0.00 62 1013.8
20260906031456 88 15 0.0 0.0 0.00 0.00 0.00 60 1013.7
20260906030951 88 339 0.0 1.0 0.00 0.00 0.00 60 1013.6
20260906030445 88 333 0.0 0.0 0.00 0.00 0.00 59 1013.3
20260906025940 88 23 0.0 0.0 0.00 0.00 0.00 60 1013.4
20260906025439 89 147 0.0 1.0 0.00 0.00 0.00 59 1013.4
20260906024938 89 15 0.0 1.0 0.00 0.00 0.00 58 1013.2
20260906024438 89 233 0.0 2.0 0.00 0.00 0.00 58 1013.1
20260906023933 89 25 0.0 2.0 0.00 0.00 0.00 58 1012.9
20260906023430 89 343 0.0 1.0 0.00 0.00 0.00 57 1012.8
20260906022930 89 269 0.0 1.0 0.00 0.00 0.00 59 1012.4
20260906022425 90 25 0.0 2.0 0.00 0.00 0.00 57 1012.5
20260906021920 90 238 1.0 2.0 0.00 0.00 0.00 57 1012.2
20260906021415 90 311 0.0 2.0 0.00 0.00 0.00 57 1012.2
20260906020914 90 3 0.0 2.0 0.00 0.00 0.00 56 1012.1
20260906020409 90 37 0.0 1.0 0.00 0.00 0.00 57 1011.9
20260906015903 90 297 0.0 1.0 0.00 0.00 0.00 56 1012.2
20260906015403 90 32 0.0 0.0 0.00 0.00 0.00 55 1011.9
20260906014903 91 44 0.0 1.0 0.00 0.00 0.00 56 1011.9
20260906014402 91 11 0.0 2.0 0.00 0.00 0.00 56 1011.9
20260906013859 91 11 0.0 1.0 0.00 0.00 0.00 55 1011.9
20260906013354 91 297 0.0 2.0 0.00 0.00 0.00 54 1011.9
20260906012849 91 105 0.0 1.0 0.00 0.00 0.00 54 1011.8
20260906012344 91 186 0.0 1.0 0.00 0.00 0.00 53 1011.8
20260906011844 92 343 0.0 0.0 0.00 0.00 0.00 53 1011.6
20260906011339 92 336 0.0 1.0 0.00 0.00 0.00 52 1011.9
20260906010835 92 326 0.0 1.0 0.00 0.00 0.00 51 1011.7
20260906010331 93 343 0.0 1.0 0.00 0.00 0.00 51 1011.7
20260906005826 93 0 0.0 1.0 0.00 0.00 0.00 51 1011.6
20260906005325 93 333 0.0 2.0 0.00 0.00 0.00 49 1011.6
20260906004824 94 5 0.0 2.0 0.00 0.00 0.00 48 1011.7
20260906004324 94 343 0.0 1.0 0.00 0.00 0.00 48 1011.6
20260906003819 95 330 2.0 2.0 0.00 0.00 0.00 48 1011.4
20260906003315 95 0 0.0 1.0 0.00 0.00 0.00 46 1011.6
20260906002810 95 10 0.0 1.0 0.00 0.00 0.00 45 1011.4
20260906002309 96 3 0.0 1.0 0.00 0.00 0.00 47 1011.3
20260906001805 96 309 0.0 1.0 0.00 0.00 0.00 45 1011.5
20260906001300 96 352 2.0 2.0 0.00 0.00 0.00 43 1011.5
20260906000756 96 6 0.0 1.0 0.00 0.00 0.00 44 1011.3
20260906000256 96 37 0.0 2.0 0.00 0.00 0.00 43 1011.4
20260905235750 96 322 0.0 0.0 0.00 0.00 0.00 44 1011.3
20260905235250 96 1 1.0 1.0 0.00 0.00 0.00 44 1011.3
20260905234746 97 297 0.0 0.0 0.00 0.00 0.00 42 1011.4
20260905234240 97 50 0.0 1.0 0.00 0.00 0.00 42 1011.3
20260905233737 97 333 0.0 2.0 0.00 0.00 0.00 42 1011.1
20260905233236 97 322 0.0 1.0 0.00 0.00 0.00 43 1011.2
20260905232735 97 257 0.0 2.0 0.00 0.00 0.00 42 1011.3
20260905232231 96 297 0.0 0.0 0.00 0.00 0.00 41 1011.2
20260905231727 96 297 0.0 1.0 0.00 0.00 0.00 43 1011.3
20260905231222 96 0 0.0 1.0 0.00 0.00 0.00 43 1011.3
20260905230719 96 241 1.0 1.0 0.00 0.00 0.00 42 1011.2
20260905230216 97 235 0.0 1.0 0.00 0.00 0.00 42 1011.3
20260905225716 97 332 1.0 2.0 0.00 0.00 0.00 42 1011.3
20260905225212 98 327 0.0 2.0 0.00 0.00 0.00 41 1011.2
20260905224710 98 25 0.0 0.0 0.00 0.00 0.00 41 1011.1
20260905224206 99 305 1.0 1.0 0.00 0.00 0.00 40 1011.4
20260905223702 98 38 0.0 2.0 0.00 0.00 0.00 39 1011.2
20260905223159 99 3 0.0 2.0 0.00 0.00 0.00 40 1011.2
20260905222654 98 284 0.0 1.0 0.00 0.00 0.00 39 1011.2
20260905222154 99 309 0.0 2.0 0.00 0.00 0.00 39 1011.2
20260905221649 99 341 1.0 1.0 0.00 0.00 0.00 39 1011.3
20260905221146 98 315 0.0 2.0 0.00 0.00 0.00 39 1011.4
20260905220642 98 105 1.0 2.0 0.00 0.00 0.00 39 1011.4
20260905220138 98 345 0.0 2.0 0.00 0.00 0.00 40 1011.5
20260905215637 97 6 0.0 1.0 0.00 0.00 0.00 39 1011.4
20260905215133 98 334 1.0 2.0 0.00 0.00 0.00 39 1011.6
20260905214629 97 224 1.0 1.0 0.00 0.00 0.00 40 1011.5
20260905214129 98 269 0.0 2.0 0.00 0.00 0.00 40 1011.5
20260905213624 98 283 1.0 2.0 0.00 0.00 0.00 38 1011.5
20260905213119 99 288 1.0 3.0 0.00 0.00 0.00 38 1011.4
20260905212614 99 344 1.0 2.0 0.00 0.00 0.00 38 1011.5
20260905212114 99 325 1.0 3.0 0.00 0.00 0.00 38 1011.3
20260905211609 99 302 2.0 2.0 0.00 0.00 0.00 39 1011.7
20260905211104 99 316 1.0 3.0 0.00 0.00 0.00 39 1011.8
20260905210601 99 219 0.0 2.0 0.00 0.00 0.00 39 1011.8
20260905210055 99 320 0.0 1.0 0.00 0.00 0.00 38 1011.7
20260905205554 100 276 1.0 2.0 0.00 0.00 0.00 38 1012.0
20260905205054 100 338 1.0 3.0 0.00 0.00 0.00 38 1011.8
20260905204549 100 349 1.0 2.0 0.00 0.00 0.00 36 1012.2
20260905204044 100 322 1.0 2.0 0.00 0.00 0.00 38 1012.3
20260905203544 100 242 0.0 2.0 0.00 0.00 0.00 39 1012.5
20260905203039 101 242 1.0 3.0 0.00 0.00 0.00 36 1012.4
20260905202534 99 326 0.0 1.0 0.00 0.00 0.00 39 1012.5
20260905202030 98 327 1.0 2.0 0.00 0.00 0.00 40 1012.6
20260905201526 98 333 0.0 2.0 0.00 0.00 0.00 40 1012.6
20260905201025 99 25 0.0 3.0 0.00 0.00 0.00 40 1012.8
20260905200520 102 333 0.0 2.0 0.00 0.00 0.00 37 1012.7
20260905200021 101 7 1.0 5.0 0.00 0.00 0.00 39 1013.0
20260905195520 101 240 0.0 2.0 0.00 0.00 0.00 38 1012.9
20260905195015 102 164 0.0 2.0 0.00 0.00 0.00 38 1012.9
20260905194510 103 292 0.0 2.0 0.00 0.00 0.00 36 1013.2
20260905194009 103 354 1.0 3.0 0.00 0.00 0.00 37 1013.2
20260905193504 103 20 1.0 2.0 0.00 0.00 0.00 38 1013.2
20260905192959 102 289 1.0 3.0 0.00 0.00 0.00 38 1013.3
20260905192454 103 351 1.0 2.0 0.00 0.00 0.00 37 1013.3
20260905191945 102 246 2.0 2.0 0.00 0.00 0.00 39 1013.4
20260905191443 100 116 2.0 3.0 0.00 0.00 0.00 39 1013.6
20260905190943 101 146 3.0 3.0 0.00 0.00 0.00 39 1013.6
20260905190441 100 231 2.0 3.0 0.00 0.00 0.00 40 1013.8
20260905185940 97 322 0.0 2.0 0.00 0.00 0.00 44 1014.0
20260905185435 99 343 2.0 3.0 0.00 0.00 0.00 43 1014.1
20260905184933 103 359 0.0 2.0 0.00 0.00 0.00 39 1014.1
20260905184428 102 304 0.0 2.0 0.00 0.00 0.00 38 1014.0
20260905183927 101 263 1.0 1.0 0.00 0.00 0.00 38 1014.5
20260905183422 101 347 0.0 2.0 0.00 0.00 0.00 39 1014.3
20260905182917 99 326 2.0 2.0 0.00 0.00 0.00 41 1014.6
20260905182416 98 40 0.0 3.0 0.00 0.00 0.00 44 1014.5
20260905181912 96 115 2.0 2.0 0.00 0.00 0.00 45 1014.6
20260905181412 98 6 3.0 3.0 0.00 0.00 0.00 45 1014.8
20260905180911 100 315 0.0 2.0 0.00 0.00 0.00 43 1015.1
20260905180406 100 272 0.0 2.0 0.00 0.00 0.00 43 1015.1
20260905175901 100 50 0.0 2.0 0.00 0.00 0.00 45 1015.0
20260905175401 98 0 0.0 1.0 0.00 0.00 0.00 43 1015.1
20260905174901 97 284 0.0 3.0 0.00 0.00 0.00 46 1015.3
20260905174357 97 0 2.0 4.0 0.00 0.00 0.00 46 1015.5
20260905173852 96 358 2.0 2.0 0.00 0.00 0.00 46 1015.3
20260905173348 96 347 0.0 2.0 0.00 0.00 0.00 49 1015.4
20260905172843 96 206 0.0 2.0 0.00 0.00 0.00 49 1015.7
20260905172341 95 209 1.0 2.0 0.00 0.00 0.00 51 1015.7
20260905171837 95 63 0.0 2.0 0.00 0.00 0.00 51 1015.5
20260905171334 95 255 0.0 3.0 0.00 0.00 0.00 52 1015.8
20260905170830 94 219 1.0 2.0 0.00 0.00 0.00 53 1015.7
20260905170326 92 154 0.0 2.0 0.00 0.00 0.00 55 1015.7
20260905165825 90 252 0.0 2.0 0.00 0.00 0.00 58 1015.9
20260905165320 89 315 0.0 1.0 0.00 0.00 0.00 59 1015.7
20260905164820 88 293 0.0 0.0 0.00 0.00 0.00 63 1015.7
20260905164315 88 283 0.0 2.0 0.00 0.00 0.00 64 1015.8
20260905163811 88 81 2.0 5.0 0.00 0.00 0.00 63 1015.9
20260905163307 88 154 0.0 1.0 0.00 0.00 0.00 65 1015.8
20260905162802 87 183 0.0 3.0 0.00 0.00 0.00 66 1015.9
20260905162257 87 196 0.0 2.0 0.00 0.00 0.00 65 1016.0
20260905161757 87 157 0.0 3.0 0.00 0.00 0.00 65 1015.9
20260905161256 87 53 3.0 3.0 0.00 0.00 0.00 68 1015.9
20260905160754 87 353 2.0 2.0 0.00 0.00 0.00 67 1015.9
20260905160249 86 333 0.0 1.0 0.00 0.00 0.00 66 1016.0
20260905155744 86 322 2.0 4.0 0.00 0.00 0.00 66 1015.8
20260905155242 86 104 0.0 2.0 0.00 0.00 0.00 68 1015.9
20260905154737 86 7 2.0 2.0 0.00 0.00 0.00 70 1015.9
20260905154233 85 182 2.0 2.0 0.00 0.00 0.00 72 1015.8
20260905153728 85 76 0.0 2.0 0.00 0.00 0.00 73 1015.9
20260905153225 84 135 0.0 2.0 0.00 0.00 0.00 75 1015.9
20260905152724 84 108 0.0 2.0 0.00 0.00 0.00 75 1015.9
20260905152219 84 117 0.0 3.0 0.00 0.00 0.00 75 1015.9
20260905151718 84 205 0.0 1.0 0.00 0.00 0.00 75 1016.1
20260905151215 84 99 1.0 2.0 0.00 0.00 0.00 77 1015.9
20260905150709 83 117 0.0 2.0 0.00 0.00 0.00 77 1015.9
20260905150208 83 73 1.0 1.0 0.00 0.00 0.00 78 1015.9
20260905145706 83 57 1.0 1.0 0.00 0.00 0.00 79 1015.8